TimePDT,TemperatureF,Dew PointF,Humidity,Sea Level PressureIn,VisibilityMPH,Wind Direction,Wind SpeedMPH,Gust SpeedMPH,PrecipitationIn,Events,Conditions,WindDirDegrees,DateUTC
12:15 AM,50.0,30.2,47,30.20,10.0,Calm,Calm,-,N/A,,Clear,0,2013-08-10 07:15:00
12:35 AM,50.0,30.2,47,30.20,10.0,SSW,3.5,-,N/A,,Clear,210,2013-08-10 07:35:00
12:55 AM,46.4,30.2,53,30.20,10.0,Calm,Calm,-,N/A,,Clear,0,2013-08-10 07:55:00
1:15 AM,46.4,28.4,50,30.20,10.0,Calm,Calm,-,N/A,,Clear,0,2013-08-10 08:15:00
1:35 AM,41.0,26.6,57,30.20,10.0,Calm,Calm,-,N/A,,Clear,0,2013-08-10 08:35:00
1:55 AM,42.8,28.4,57,30.20,10.0,Calm,Calm,-,N/A,,Clear,0,2013-08-10 08:55:00
2:15 AM,42.8,26.6,53,30.20,10.0,Calm,Calm,-,N/A,,Clear,0,2013-08-10 09:15:00
2:35 AM,42.8,28.4,57,30.20,10.0,Calm,Calm,-,N/A,,Clear,0,2013-08-10 09:35:00
2:55 AM,37.4,24.8,60,30.20,10.0,Calm,Calm,-,N/A,,Clear,0,2013-08-10 09:55:00
3:15 AM,39.2,28.4,65,30.20,10.0,Calm,Calm,-,N/A,,Clear,0,2013-08-10 10:15:00
3:35 AM,37.4,26.6,65,30.20,10.0,Calm,Calm,-,N/A,,Clear,0,2013-08-10 10:35:00
3:55 AM,39.2,26.6,61,30.20,10.0,Calm,Calm,-,N/A,,Clear,0,2013-08-10 10:55:00
4:15 AM,35.6,24.8,65,30.20,10.0,Calm,Calm,-,N/A,,Clear,0,2013-08-10 11:15:00
4:35 AM,35.6,24.8,65,30.20,10.0,Calm,Calm,-,N/A,,Clear,0,2013-08-10 11:35:00
4:55 AM,35.6,26.6,70,30.20,10.0,NNW,4.6,-,N/A,,Clear,330,2013-08-10 11:55:00
5:15 AM,39.2,28.4,65,30.20,10.0,Calm,Calm,-,N/A,,Clear,0,2013-08-10 12:15:00
5:35 AM,33.8,24.8,70,30.20,10.0,NNW,4.6,-,N/A,,Clear,330,2013-08-10 12:35:00
5:55 AM,33.8,24.8,70,30.21,10.0,North,3.5,-,N/A,,Clear,360,2013-08-10 12:55:00
6:15 AM,39.2,28.4,65,30.21,10.0,NNW,3.5,-,N/A,,Clear,330,2013-08-10 13:15:00
6:35 AM,33.8,26.6,75,30.22,10.0,NNW,5.8,-,N/A,,Clear,330,2013-08-10 13:35:00
6:55 AM,39.2,28.4,65,30.22,10.0,Calm,Calm,-,N/A,,Clear,0,2013-08-10 13:55:00
7:15 AM,41.0,28.4,61,30.22,10.0,Calm,Calm,-,N/A,,Clear,0,2013-08-10 14:15:00
7:35 AM,48.2,30.2,50,30.23,10.0,Calm,Calm,-,N/A,,Clear,0,2013-08-10 14:35:00
7:55 AM,51.8,30.2,44,30.23,10.0,SE,3.5,-,N/A,,Clear,140,2013-08-10 14:55:00
8:15 AM,55.4,30.2,38,30.23,10.0,Calm,Calm,-,N/A,,Clear,0,2013-08-10 15:15:00
8:35 AM,59.0,28.4,31,30.23,10.0,Calm,Calm,-,N/A,,Clear,0,2013-08-10 15:35:00
8:55 AM,60.8,32.0,34,30.23,10.0,SE,4.6,-,N/A,,Clear,140,2013-08-10 15:55:00
9:15 AM,62.6,32.0,32,30.23,10.0,SE,3.5,-,N/A,,Clear,140,2013-08-10 16:15:00
9:35 AM,64.4,30.2,28,30.23,10.0,SE,3.5,-,N/A,,Clear,140,2013-08-10 16:35:00
9:55 AM,66.2,28.4,24,30.23,10.0,Calm,Calm,-,N/A,,Clear,0,2013-08-10 16:55:00
10:15 AM,68.0,28.4,23,30.23,10.0,Calm,Calm,-,N/A,,Clear,0,2013-08-10 17:15:00
10:35 AM,68.0,28.4,23,30.23,10.0,East,6.9,-,N/A,,Clear,100,2013-08-10 17:35:00
10:55 AM,69.8,26.6,20,30.23,10.0,ESE,10.4,-,N/A,,Clear,110,2013-08-10 17:55:00
11:15 AM,69.8,26.6,20,30.22,10.0,ESE,11.5,-,N/A,,Clear,110,2013-08-10 18:15:00
11:35 AM,71.6,23.0,16,30.22,10.0,ENE,8.1,17.3,N/A,,Clear,70,2013-08-10 18:35:00
11:55 AM,73.4,23.0,15,30.22,10.0,ESE,11.5,19.6,N/A,,Clear,110,2013-08-10 18:55:00
12:15 PM,73.4,23.0,15,30.21,10.0,East,10.4,-,N/A,,Clear,100,2013-08-10 19:15:00
12:35 PM,73.4,23.0,15,30.21,10.0,ESE,10.4,-,N/A,,Clear,120,2013-08-10 19:35:00
12:55 PM,73.4,23.0,15,30.21,10.0,ESE,11.5,-,N/A,,Clear,110,2013-08-10 19:55:00
1:15 PM,75.2,23.0,14,30.20,10.0,ESE,11.5,19.6,N/A,,Clear,120,2013-08-10 20:15:00
1:35 PM,75.2,23.0,14,30.20,10.0,SE,8.1,-,N/A,,Clear,140,2013-08-10 20:35:00
1:55 PM,75.2,23.0,14,30.19,10.0,SSE,12.7,21.9,N/A,,Scattered Clouds,160,2013-08-10 20:55:00
2:15 PM,77.0,23.0,13,30.19,10.0,East,11.5,17.3,N/A,,Scattered Clouds,90,2013-08-10 21:15:00
2:35 PM,75.2,23.0,14,30.19,10.0,South,6.9,-,N/A,,Scattered Clouds,190,2013-08-10 21:35:00
2:55 PM,75.2,26.6,17,30.19,10.0,NW,3.5,-,N/A,,Mostly Cloudy,320,2013-08-10 21:55:00
3:15 PM,73.4,26.6,18,30.18,10.0,NW,6.9,27.6,N/A,,Mostly Cloudy,320,2013-08-10 22:15:00
3:35 PM,75.2,26.6,17,30.18,10.0,WNW,13.8,29.9,N/A,,Mostly Cloudy,290,2013-08-10 22:35:00
3:55 PM,77.0,26.6,16,30.18,10.0,WNW,12.7,21.9,N/A,,Mostly Cloudy,290,2013-08-10 22:55:00
4:35 PM,75.2,28.4,18,30.18,10.0,West,23.0,32.2,N/A,,Scattered Clouds,280,2013-08-10 23:35:00
4:55 PM,77.0,28.4,17,30.18,10.0,WNW,20.7,27.6,N/A,,Mostly Cloudy,290,2013-08-10 23:55:00
5:15 PM,75.2,26.6,17,30.17,10.0,NE,3.5,20.7,N/A,,Mostly Cloudy,40,2013-08-11 00:15:00
5:35 PM,75.2,30.2,19,30.18,10.0,SW,12.7,24.2,N/A,,Scattered Clouds,230,2013-08-11 00:35:00
6:15 PM,73.4,30.2,20,30.17,10.0,SW,13.8,25.3,N/A,,Clear,220,2013-08-11 01:15:00
6:35 PM,71.6,32.0,23,30.17,10.0,SW,12.7,21.9,N/A,,Clear,230,2013-08-11 01:35:00
7:15 PM,66.2,32.0,28,30.18,10.0,WNW,8.1,24.2,N/A,,Clear,290,2013-08-11 02:15:00
7:35 PM,66.2,32.0,28,30.18,10.0,Calm,Calm,-,N/A,,Clear,0,2013-08-11 02:35:00
7:55 PM,64.4,30.2,28,30.19,10.0,NNW,8.1,-,N/A,,Clear,330,2013-08-11 02:55:00
8:15 PM,62.6,30.2,30,30.20,10.0,Calm,Calm,-,N/A,,Clear,0,2013-08-11 03:15:00
8:35 PM,62.6,32.0,32,30.20,10.0,East,4.6,-,N/A,,Clear,90,2013-08-11 03:35:00
8:55 PM,60.8,32.0,34,30.21,10.0,Calm,Calm,-,N/A,,Clear,0,2013-08-11 03:55:00
9:15 PM,60.8,32.0,34,30.22,10.0,Calm,Calm,-,N/A,,Clear,0,2013-08-11 04:15:00
9:35 PM,57.2,30.2,36,30.24,10.0,Calm,Calm,-,N/A,,Clear,0,2013-08-11 04:35:00
9:55 PM,53.6,32.0,44,30.23,10.0,Calm,Calm,-,N/A,,Clear,0,2013-08-11 04:55:00
10:15 PM,51.8,28.4,41,30.23,10.0,Calm,Calm,-,N/A,,Clear,0,2013-08-11 05:15:00
10:35 PM,51.8,30.2,44,30.24,10.0,Calm,Calm,-,N/A,,Clear,0,2013-08-11 05:35:00
10:55 PM,51.8,32.0,47,30.24,10.0,Calm,Calm,-,N/A,,Clear,0,2013-08-11 05:55:00
11:15 PM,51.8,32.0,47,30.24,10.0,Calm,Calm,-,N/A,,Clear,0,2013-08-11 06:15:00
11:35 PM,51.8,32.0,47,30.24,10.0,Calm,Calm,-,N/A,,Clear,0,2013-08-11 06:35:00
11:55 PM,48.2,32.0,54,30.24,10.0,Calm,Calm,-,N/A,,Clear,0,2013-08-11 06:55:00